This is the latest recevied weather packets stored in our database for station/object WX2NJ-13. If no packets are shown the sender has not sent any weather packets the latest 10 day(s).
| Time | Temp. | Humidity | Pressure | Rain* | Wind** | Luminosity | Snow |
|---|---|---|---|---|---|---|---|
| 1777682889 | 11.11° C | 62% | 1013 hPa | 0 mm | 0.45 m/s, 158° | - | - |
| 1777682590 | 11.67° C | 61% | 1013 hPa | 0 mm | 0.45 m/s, 187° | - | - |
| 1777682292 | 11.67° C | 61% | 1012.9 hPa | 0 mm | 0.45 m/s, 167° | - | - |
| 1777681990 | 11.67° C | 61% | 1012.9 hPa | 0 mm | 0 m/s | - | - |
| 1777681692 | 11.67° C | 61% | 1012.9 hPa | 0 mm | 0.45 m/s, 163° | - | - |
| 1777681393 | 12.22° C | 61% | 1012.8 hPa | 0 mm | 0.89 m/s, 184° | - | - |
| 1777681092 | 12.22° C | 61% | 1012.7 hPa | 0 mm | 0.89 m/s, 226° | - | - |
| 1777680793 | 12.22° C | 61% | 1012.8 hPa | 0 mm | 1.34 m/s, 170° | - | - |
| 1777680495 | 12.22° C | 62% | 1012.7 hPa | 0 mm | 1.34 m/s, 190° | - | - |
| 1777680194 | 12.78° C | 63% | 1012.6 hPa | 0 mm | 0.89 m/s, 246° | - | - |
| 1777679895 | 12.78° C | 63% | 1012.5 hPa | 0 mm | 0 m/s | - | - |
| 1777679597 | 12.78° C | 64% | 1012.4 hPa | 0 mm | 0.89 m/s, 187° | - | - |
| 1777679295 | 13.33° C | 63% | 1012.3 hPa | 0 mm | 0 m/s | - | - |
| 1777678997 | 13.33° C | 63% | 1012.2 hPa | 0 mm | 0.45 m/s, 158° | - | - |
| 1777678698 | 13.33° C | 63% | 1012.1 hPa | 0 mm | 0.45 m/s, 170° | - | - |
| 1777678098 | 13.33° C | 62% | 1012.1 hPa | 0 mm | 0.89 m/s, 174° | - | - |
| 1777677800 | 13.89° C | 62% | 1012.1 hPa | 0 mm | 0.45 m/s, 179° | - | - |
| 1777677498 | 13.89° C | 62% | 1012.1 hPa | 0 mm | 0.89 m/s, 165° | - | - |
| 1777677200 | 13.89° C | 62% | 1012 hPa | 0 mm | 0.89 m/s, 162° | - | - |
| 1777676901 | 13.89° C | 62% | 1012 hPa | 0 mm | 0.89 m/s, 153° | - | - |
| 1777676600 | 13.89° C | 61% | 1012 hPa | 0 mm | 0.89 m/s, 145° | - | - |
| 1777676302 | 14.44° C | 61% | 1012 hPa | 0 mm | 1.34 m/s, 173° | - | - |
| 1777676003 | 14.44° C | 60% | 1012 hPa | 0 mm | 1.34 m/s, 191° | - | - |
| 1777675702 | 14.44° C | 61% | 1011.9 hPa | 0 mm | 0.89 m/s, 174° | - | - |
| 1777675403 | 14.44° C | 60% | 1011.8 hPa | 0 mm | 0.45 m/s, 148° | - | - |
* Rain latest hour (hover to see other rain measurements)
** Current wind speed in m/s (hover to see current wind gust speed)